Location: Friaudour
(46.0460°N, 1.2873°E)
Time: 20:28:35
(UTC+00:00)

Helios 1A - Pass Details

Date: 14 July 2020
Orbit: 587 x 600 km, 98.2° (Epoch: 11 August)

Event Time Altitude Azimuth Distance (km) Brightness Sun altitude
Exits shadow 00:38:46 29° 265° (W) 1,080 4.1 -21.8°
Drops below altitude 10° 00:42:23 10° 326° (NW) 1,926 6.2 -21.7°
Sets 00:44:47 0° 337° (NNW) 2,834 7.4 -21.6°
